Location: Saratoga Springs
(43.0831°N, 73.7850°W)
Time: 22:22:02
(UTC-04:00)

Vanguard 2 Rocket - Pass Details

Date: 25 April 2024
Orbit: 556 x 3304 km, 32.9° (Epoch: 21 May)

Event Time Altitude Azimuth Distance (km) Brightness Sun altitude
Rises 02:34:49 0° 278° (W) 7,054 11.2 -28.9°
Reaches altitude 10° 02:39:52 10° 272° (W) 6,184 10.9 -28.5°
Maximum altitude 02:57:14 39° 213° (SSW) 4,153 9.6 -26.8°
Drops below altitude 10° 03:11:53 10° 152° (SSE) 5,217 10.5 -25.2°
Sets 03:15:44 0° 145° (SE) 5,892 10.9 -24.8°
